Time,TemperatureF,DewpointF,PressureIn,WindDirection,WindDirectionDegrees,WindSpeedMPH,WindSpeedGustMPH,Humidity,HourlyPrecipIn,Conditions,Clouds,dailyrainin,SoftwareType,DateUTC
2013-03-27 00:00:00,33.6,20.8,29.44,NNW,327,3.0,8.0,59,0.00,,,0.00,Weather View 32 v70,2013-03-27 04:00:00,
2013-03-27 00:10:00,33.4,20.2,29.44,NW,306,2.0,8.0,58,0.00,,,0.00,Weather View 32 v70,2013-03-27 04:10:00,
2013-03-27 00:20:00,33.3,19.7,29.44,North,357,3.0,8.0,57,0.00,,,0.00,Weather View 32 v70,2013-03-27 04:20:00,
2013-03-27 00:30:00,33.1,18.7,29.44,NNW,329,4.0,6.0,55,0.00,,,0.00,Weather View 32 v70,2013-03-27 04:30:00,
2013-03-27 00:40:00,33.1,18.7,29.44,NNW,329,4.0,6.0,55,0.00,,,0.00,Weather View 32 v70,2013-03-27 04:40:00,
2013-03-27 00:50:00,32.5,18.2,29.44,North,353,3.0,6.0,55,0.00,,,0.00,Weather View 32 v70,2013-03-27 04:50:00,
2013-03-27 01:00:00,32.4,17.6,29.44,NW,316,0.0,6.0,54,0.00,,,0.00,Weather View 32 v70,2013-03-27 05:00:00,
2013-03-27 01:10:00,32.2,17.4,29.44,NW,323,3.0,6.0,54,0.00,,,0.00,Weather View 32 v70,2013-03-27 05:10:00,
2013-03-27 01:30:00,31.6,16.5,29.44,NNW,332,3.0,5.0,53,0.00,,,0.00,Weather View 32 v70,2013-03-27 05:30:00,
2013-03-27 01:40:00,31.3,16.1,29.44,North,353,2.0,6.0,53,0.00,,,0.00,Weather View 32 v70,2013-03-27 05:40:00,
2013-03-27 01:50:00,31.3,16.1,29.44,NNW,334,3.0,6.0,53,0.00,,,0.00,Weather View 32 v70,2013-03-27 05:50:00,
2013-03-27 02:00:00,30.7,15.6,29.44,NW,306,5.0,6.0,53,0.00,,,0.00,Weather View 32 v70,2013-03-27 06:00:00,
2013-03-27 02:10:00,30.4,16.1,29.47,North,353,0.0,6.0,55,0.00,,,0.00,Weather View 32 v70,2013-03-27 06:10:00,
2013-03-27 02:20:00,30.2,16.8,29.44,NNW,339,2.0,6.0,57,0.00,,,0.00,Weather View 32 v70,2013-03-27 06:20:00,
2013-03-27 02:30:00,30.0,17.8,29.44,NNW,342,3.0,6.0,60,0.00,,,0.00,Weather View 32 v70,2013-03-27 06:30:00,
2013-03-27 02:40:00,30.0,18.6,29.47,West,278,0.0,6.0,62,0.00,,,0.00,Weather View 32 v70,2013-03-27 06:40:00,
2013-03-27 02:50:00,30.0,18.6,29.47,North,0,0.0,6.0,62,0.00,,,0.00,Weather View 32 v70,2013-03-27 06:50:00,
2013-03-27 03:00:00,30.0,18.6,29.47,WNW,300,2.0,6.0,62,0.00,,,0.00,Weather View 32 v70,2013-03-27 07:00:00,
2013-03-27 03:10:00,29.8,18.8,29.47,NNW,342,4.0,6.0,63,0.00,,,0.00,Weather View 32 v70,2013-03-27 07:10:00,
2013-03-27 03:20:00,29.8,19.1,29.47,NNW,342,5.0,6.0,64,0.00,,,0.00,Weather View 32 v70,2013-03-27 07:20:00,
2013-03-27 03:30:00,29.8,19.1,29.47,WSW,237,2.0,6.0,64,0.00,,,0.00,Weather View 32 v70,2013-03-27 07:30:00,
2013-03-27 03:40:00,29.7,19.3,29.47,NNW,340,3.0,6.0,65,0.00,,,0.00,Weather View 32 v70,2013-03-27 07:40:00,
2013-03-27 03:50:00,29.5,19.2,29.47,NW,321,3.0,8.0,65,0.00,,,0.00,Weather View 32 v70,2013-03-27 07:50:00,
2013-03-27 04:00:00,29.5,19.5,29.47,WNW,284,3.0,8.0,66,0.00,,,0.00,Weather View 32 v70,2013-03-27 08:00:00,
2013-03-27 04:10:00,29.3,19.7,29.47,WSW,254,0.0,8.0,67,0.00,,,0.00,Weather View 32 v70,2013-03-27 08:10:00,
2013-03-27 04:20:00,29.3,19.7,29.44,NNW,330,0.0,8.0,67,0.00,,,0.00,Weather View 32 v70,2013-03-27 08:20:00,
2013-03-27 04:30:00,29.1,19.2,29.44,WSW,250,2.0,8.0,66,0.00,,,0.00,Weather View 32 v70,2013-03-27 08:30:00,
2013-03-27 04:40:00,29.3,19.7,29.47,West,259,0.0,8.0,67,0.00,,,0.00,Weather View 32 v70,2013-03-27 08:40:00,
2013-03-27 04:50:00,28.9,19.4,29.47,North,353,3.0,8.0,67,0.00,,,0.00,Weather View 32 v70,2013-03-27 08:50:00,
2013-03-27 05:00:00,29.1,19.9,29.47,NW,311,5.0,8.0,68,0.00,,,0.00,Weather View 32 v70,2013-03-27 09:00:00,
2013-03-27 05:10:00,29.1,19.5,29.47,West,262,2.0,8.0,67,0.00,,,0.00,Weather View 32 v70,2013-03-27 09:10:00,
2013-03-27 05:20:00,28.9,19.4,29.47,NNW,332,2.0,8.0,67,0.00,,,0.00,Weather View 32 v70,2013-03-27 09:20:00,
2013-03-27 05:30:00,28.9,19.4,29.47,SSW,192,0.0,8.0,67,0.00,,,0.00,Weather View 32 v70,2013-03-27 09:30:00,
2013-03-27 05:40:00,28.8,19.5,29.47,NW,315,3.0,6.0,68,0.00,,,0.00,Weather View 32 v70,2013-03-27 09:40:00,
2013-03-27 05:50:00,28.8,19.5,29.47,WNW,291,2.0,6.0,68,0.00,,,0.00,Weather View 32 v70,2013-03-27 09:50:00,
2013-03-27 06:00:00,28.8,19.9,29.47,North,357,2.0,6.0,69,0.00,,,0.00,Weather View 32 v70,2013-03-27 10:00:00,
2013-03-27 06:10:00,28.8,19.9,29.47,NW,308,3.0,6.0,69,0.00,,,0.00,Weather View 32 v70,2013-03-27 10:10:00,
2013-03-27 06:20:00,28.9,20.0,29.44,WNW,298,3.0,6.0,69,0.00,,,0.00,Weather View 32 v70,2013-03-27 10:20:00,
2013-03-27 06:30:00,28.9,20.0,29.44,South,184,0.0,6.0,69,0.00,,,0.00,Weather View 32 v70,2013-03-27 10:30:00,
2013-03-27 06:40:00,28.9,20.4,29.44,WNW,290,5.0,10.0,70,0.00,,,0.00,Weather View 32 v70,2013-03-27 10:40:00,
2013-03-27 06:45:00,28.9,20.4,29.44,WNW,290,5.0,10.0,70,0.00,,,0.00,Weather View 32 v70,2013-03-27 10:45:00,
2013-03-27 07:00:00,28.8,20.5,29.44,NW,305,4.0,10.0,71,0.00,,,0.00,Weather View 32 v70,2013-03-27 11:00:00,
2013-03-27 07:10:00,28.8,20.5,29.44,NNW,341,3.0,10.0,71,0.00,,,0.00,Weather View 32 v70,2013-03-27 11:10:00,
2013-03-27 07:20:00,28.8,20.2,29.44,West,268,0.0,10.0,70,0.00,,,0.00,Weather View 32 v70,2013-03-27 11:20:00,
2013-03-27 07:30:00,28.9,20.0,29.44,West,280,3.0,10.0,69,0.00,,,0.00,Weather View 32 v70,2013-03-27 11:30:00,
2013-03-27 07:40:00,28.6,19.7,29.44,North,0,4.0,10.0,69,0.00,,,0.00,Weather View 32 v70,2013-03-27 11:40:00,
2013-03-27 07:46:00,28.6,19.7,29.44,North,0,4.0,10.0,69,0.00,,,0.00,Weather View 32 v70,2013-03-27 11:46:00,
2013-03-27 08:00:00,29.3,19.7,29.47,NNW,340,4.0,9.0,67,0.00,,,0.00,Weather View 32 v70,2013-03-27 12:00:00,
2013-03-27 08:10:00,29.7,18.6,29.47,North,353,4.0,9.0,63,0.00,,,0.00,Weather View 32 v70,2013-03-27 12:10:00,
2013-03-27 08:20:00,30.2,18.0,29.47,NW,319,5.0,11.0,60,0.00,,,0.00,Weather View 32 v70,2013-03-27 12:20:00,
2013-03-27 08:30:00,30.6,17.9,29.47,NNW,327,6.0,11.0,59,0.00,,,0.00,Weather View 32 v70,2013-03-27 12:30:00,
2013-03-27 08:40:00,31.1,18.0,29.47,NNW,329,5.0,11.0,58,0.00,,,0.00,Weather View 32 v70,2013-03-27 12:40:00,
2013-03-27 08:47:00,31.1,18.0,29.47,NNW,329,5.0,11.0,58,0.00,,,0.00,Weather View 32 v70,2013-03-27 12:47:00,
2013-03-27 09:00:00,31.6,18.1,29.47,WNW,298,4.0,11.0,57,0.00,,,0.00,Weather View 32 v70,2013-03-27 13:00:00,
2013-03-27 09:10:00,32.2,18.2,29.47,NNE,28,5.0,11.0,56,0.00,,,0.00,Weather View 32 v70,2013-03-27 13:10:00,
2013-03-27 09:20:00,32.5,18.6,29.47,NNW,344,5.0,11.0,56,0.00,,,0.00,Weather View 32 v70,2013-03-27 13:20:00,
2013-03-27 09:30:00,33.1,18.7,29.47,WNW,287,4.0,11.0,55,0.00,,,0.00,Weather View 32 v70,2013-03-27 13:30:00,
2013-03-27 09:40:00,33.3,18.0,29.47,SW,221,3.0,11.0,53,0.00,,,0.00,Weather View 32 v70,2013-03-27 13:40:00,
2013-03-27 09:47:00,33.3,18.0,29.47,SW,221,3.0,11.0,53,0.00,,,0.00,Weather View 32 v70,2013-03-27 13:47:00,
2013-03-27 10:00:00,34.2,18.4,29.47,NW,305,3.0,11.0,52,0.00,,,0.00,Weather View 32 v70,2013-03-27 14:00:00,
2013-03-27 10:10:00,34.7,18.4,29.47,West,268,8.0,11.0,51,0.00,,,0.00,Weather View 32 v70,2013-03-27 14:10:00,
2013-03-27 10:20:00,35.2,18.4,29.47,North,353,6.0,11.0,50,0.00,,,0.00,Weather View 32 v70,2013-03-27 14:20:00,
2013-03-27 10:30:00,36.0,18.6,29.47,West,259,6.0,11.0,49,0.00,,,0.00,Weather View 32 v70,2013-03-27 14:30:00,
2013-03-27 10:40:00,36.3,18.5,29.47,North,0,2.0,10.0,48,0.00,,,0.00,Weather View 32 v70,2013-03-27 14:40:00,
2013-03-27 10:48:00,36.3,18.5,29.47,North,0,2.0,10.0,48,0.00,,,0.00,Weather View 32 v70,2013-03-27 14:48:00,
2013-03-27 11:00:00,38.5,17.4,29.47,WSW,240,6.0,10.0,42,0.00,,,0.00,Weather View 32 v70,2013-03-27 15:00:00,
2013-03-27 11:10:00,39.2,18.0,29.47,NW,314,8.0,10.0,42,0.00,,,0.00,Weather View 32 v70,2013-03-27 15:10:00,
2013-03-27 11:20:00,39.7,17.9,29.47,NW,308,6.0,11.0,41,0.00,,,0.00,Weather View 32 v70,2013-03-27 15:20:00,
2013-03-27 11:30:00,40.6,17.6,29.47,WNW,298,4.0,11.0,39,0.00,,,0.00,Weather View 32 v70,2013-03-27 15:30:00,
2013-03-27 11:40:00,41.4,18.8,29.47,NNW,328,4.0,13.0,40,0.00,,,0.00,Weather View 32 v70,2013-03-27 15:40:00,
2013-03-27 11:49:00,41.4,18.8,29.47,NNW,328,4.0,13.0,40,0.00,,,0.00,Weather View 32 v70,2013-03-27 15:49:00,
2013-03-27 12:00:00,41.7,18.6,29.47,NNW,339,3.0,13.0,39,0.00,,,0.00,Weather View 32 v70,2013-03-27 16:00:00,
2013-03-27 12:10:00,41.5,17.8,29.47,NNW,330,6.0,13.0,38,0.00,,,0.00,Weather View 32 v70,2013-03-27 16:10:00,
2013-03-27 12:20:00,42.1,18.3,29.47,NNW,341,4.0,13.0,38,0.00,,,0.00,Weather View 32 v70,2013-03-27 16:20:00,
2013-03-27 12:30:00,43.9,18.0,29.47,NNW,334,4.0,15.0,35,0.00,,,0.00,Weather View 32 v70,2013-03-27 16:30:00,
2013-03-27 12:40:00,45.0,18.9,29.47,NNW,336,8.0,15.0,35,0.00,,,0.00,Weather View 32 v70,2013-03-27 16:40:00,
2013-03-27 12:50:00,44.8,18.1,29.47,West,278,9.0,15.0,34,0.00,,,0.00,Weather View 32 v70,2013-03-27 16:50:00,
2013-03-27 13:00:00,45.9,18.3,29.47,NW,314,9.0,15.0,33,0.00,,,0.00,Weather View 32 v70,2013-03-27 17:00:00,
2013-03-27 13:10:00,46.8,17.7,29.47,North,353,6.0,15.0,31,0.00,,,0.00,Weather View 32 v70,2013-03-27 17:10:00,
2013-03-27 13:20:00,47.5,17.5,29.47,NE,38,5.0,15.0,30,0.00,,,0.00,Weather View 32 v70,2013-03-27 17:20:00,
2013-03-27 13:30:00,48.7,17.8,29.47,SW,217,4.0,13.0,29,0.00,,,0.00,Weather View 32 v70,2013-03-27 17:30:00,
2013-03-27 13:40:00,49.3,16.7,29.44,NW,317,4.0,13.0,27,0.00,,,0.00,Weather View 32 v70,2013-03-27 17:40:00,
2013-03-27 13:50:00,49.3,16.7,29.47,NW,321,7.0,12.0,27,0.00,,,0.00,Weather View 32 v70,2013-03-27 17:50:00,
2013-03-27 14:12:00,47.7,16.1,29.47,West,265,5.0,14.0,28,0.00,,,0.00,Weather View 32 v70,2013-03-27 18:12:00,
2013-03-27 14:20:00,49.3,17.5,29.47,NW,322,8.0,14.0,28,0.00,,,0.00,Weather View 32 v70,2013-03-27 18:20:00,
2013-03-27 14:30:00,49.1,17.3,29.47,NNW,342,8.0,14.0,28,0.00,,,0.00,Weather View 32 v70,2013-03-27 18:30:00,
2013-03-27 14:40:00,49.3,18.3,29.47,NW,307,10.0,14.0,29,0.00,,,0.00,Weather View 32 v70,2013-03-27 18:40:00,
2013-03-27 14:50:00,47.7,17.7,29.47,NW,324,6.0,14.0,30,0.00,,,0.00,Weather View 32 v70,2013-03-27 18:50:00,
2013-03-27 15:12:00,46.4,15.8,29.47,NW,319,8.0,13.0,29,0.00,,,0.00,Weather View 32 v70,2013-03-27 19:12:00,
2013-03-27 15:20:00,46.6,17.5,29.47,NW,315,5.0,14.0,31,0.00,,,0.00,Weather View 32 v70,2013-03-27 19:20:00,
2013-03-27 15:30:00,47.3,16.6,29.47,North,2,4.0,14.0,29,0.00,,,0.00,Weather View 32 v70,2013-03-27 19:30:00,
2013-03-27 15:40:00,46.4,15.8,29.47,NNE,19,6.0,14.0,29,0.00,,,0.00,Weather View 32 v70,2013-03-27 19:40:00,
2013-03-27 15:50:00,46.2,16.4,29.47,NW,323,4.0,15.0,30,0.00,,,0.00,Weather View 32 v70,2013-03-27 19:50:00,
2013-03-27 16:00:00,46.4,15.8,29.47,West,276,6.0,15.0,29,0.00,,,0.00,Weather View 32 v70,2013-03-27 20:00:00,
2013-03-27 16:10:00,46.0,15.5,29.44,NW,317,3.0,15.0,29,0.00,,,0.00,Weather View 32 v70,2013-03-27 20:10:00,
2013-03-27 16:20:00,46.0,15.5,29.44,NNW,346,5.0,15.0,29,0.00,,,0.00,Weather View 32 v70,2013-03-27 20:20:00,
2013-03-27 16:30:00,45.7,15.2,29.44,NNW,343,8.0,15.0,29,0.00,,,0.00,Weather View 32 v70,2013-03-27 20:30:00,
2013-03-27 16:40:00,45.7,15.2,29.44,North,353,6.0,15.0,29,0.00,,,0.00,Weather View 32 v70,2013-03-27 20:40:00,
2013-03-27 16:50:00,45.5,15.0,29.44,NNE,27,4.0,13.0,29,0.00,,,0.00,Weather View 32 v70,2013-03-27 20:50:00,
2013-03-27 17:00:00,45.5,15.0,29.44,NNW,342,8.0,13.0,29,0.00,,,0.00,Weather View 32 v70,2013-03-27 21:00:00,
2013-03-27 17:10:00,45.1,15.5,29.44,North,353,8.0,15.0,30,0.00,,,0.00,Weather View 32 v70,2013-03-27 21:10:00,
2013-03-27 17:20:00,45.1,15.5,29.44,WNW,297,4.0,15.0,30,0.00,,,0.00,Weather View 32 v70,2013-03-27 21:20:00,
2013-03-27 17:30:00,45.1,15.5,29.44,NNW,340,8.0,15.0,30,0.00,,,0.00,Weather View 32 v70,2013-03-27 21:30:00,
2013-03-27 17:40:00,45.0,15.3,29.44,NNW,335,8.0,15.0,30,0.00,,,0.00,Weather View 32 v70,2013-03-27 21:40:00,
2013-03-27 17:50:00,44.8,15.2,29.44,NNW,345,6.0,15.0,30,0.00,,,0.00,Weather View 32 v70,2013-03-27 21:50:00,
2013-03-27 18:00:00,44.6,15.0,29.44,NNW,342,4.0,15.0,30,0.00,,,0.00,Weather View 32 v70,2013-03-27 22:00:00,
2013-03-27 18:10:00,44.6,15.0,29.47,NNW,331,9.0,13.0,30,0.00,,,0.00,Weather View 32 v70,2013-03-27 22:10:00,
2013-03-27 18:20:00,44.2,14.7,29.44,NNW,343,5.0,13.0,30,0.00,,,0.00,Weather View 32 v70,2013-03-27 22:20:00,
2013-03-27 18:30:00,43.9,14.4,29.44,WSW,249,4.0,13.0,30,0.00,,,0.00,Weather View 32 v70,2013-03-27 22:30:00,
2013-03-27 18:40:00,43.9,15.2,29.47,NNW,336,6.0,13.0,31,0.00,,,0.00,Weather View 32 v70,2013-03-27 22:40:00,
2013-03-27 18:50:00,43.9,15.2,29.47,NNW,344,7.0,13.0,31,0.00,,,0.00,Weather View 32 v70,2013-03-27 22:50:00,
2013-03-27 18:56:00,43.9,15.2,29.47,NNW,344,7.0,13.0,31,0.00,,,0.00,Weather View 32 v70,2013-03-27 22:56:00,
2013-03-27 19:10:00,42.6,15.5,29.47,NNW,331,5.0,11.0,33,0.00,,,0.00,Weather View 32 v70,2013-03-27 23:10:00,
2013-03-27 19:20:00,42.1,15.7,29.47,NNW,327,6.0,11.0,34,0.00,,,0.00,Weather View 32 v70,2013-03-27 23:20:00,
2013-03-27 19:30:00,41.9,14.9,29.47,NNW,338,4.0,11.0,33,0.00,,,0.00,Weather View 32 v70,2013-03-27 23:30:00,
2013-03-27 19:40:00,41.4,15.1,29.47,North,357,3.0,11.0,34,0.00,,,0.00,Weather View 32 v70,2013-03-27 23:40:00,
2013-03-27 19:50:00,41.0,14.7,29.47,WSW,240,4.0,11.0,34,0.00,,,0.00,Weather View 32 v70,2013-03-27 23:50:00,
2013-03-27 19:57:00,41.0,14.7,29.47,WSW,240,4.0,11.0,34,0.00,,,0.00,Weather View 32 v70,2013-03-27 23:57:00,
2013-03-27 20:10:00,39.7,15.6,29.47,NNE,32,0.0,10.0,37,0.00,,,0.00,Weather View 32 v70,2013-03-28 00:10:00,
2013-03-27 20:20:00,39.4,16.5,29.47,NW,321,4.0,10.0,39,0.00,,,0.00,Weather View 32 v70,2013-03-28 00:20:00,
2013-03-27 20:30:00,38.8,16.0,29.47,NW,318,6.0,9.0,39,0.00,,,0.00,Weather View 32 v70,2013-03-28 00:30:00,
2013-03-27 20:40:00,38.5,15.6,29.47,NW,311,6.0,9.0,39,0.00,,,0.00,Weather View 32 v70,2013-03-28 00:40:00,
2013-03-27 20:50:00,38.1,15.3,29.47,NW,312,3.0,9.0,39,0.00,,,0.00,Weather View 32 v70,2013-03-28 00:50:00,
2013-03-27 20:57:00,38.1,15.3,29.47,NW,312,3.0,9.0,39,0.00,,,0.00,Weather View 32 v70,2013-03-28 00:57:00,
2013-03-27 21:10:00,37.8,15.0,29.50,North,353,4.0,8.0,39,0.00,,,0.00,Weather View 32 v70,2013-03-28 01:10:00,
2013-03-27 21:20:00,37.8,15.0,29.50,NNW,337,4.0,8.0,39,0.00,,,0.00,Weather View 32 v70,2013-03-28 01:20:00,
2013-03-27 21:30:00,37.8,15.0,29.50,WNW,301,4.0,9.0,39,0.00,,,0.00,Weather View 32 v70,2013-03-28 01:30:00,
2013-03-27 21:40:00,37.8,15.0,29.50,NNW,327,5.0,9.0,39,0.00,,,0.00,Weather View 32 v70,2013-03-28 01:40:00,
2013-03-27 21:50:00,37.6,14.8,29.50,WNW,298,4.0,9.0,39,0.00,,,0.00,Weather View 32 v70,2013-03-28 01:50:00,
2013-03-27 21:58:00,37.6,14.8,29.50,WNW,298,4.0,9.0,39,0.00,,,0.00,Weather View 32 v70,2013-03-28 01:58:00,
2013-03-27 22:10:00,37.0,14.9,29.50,NW,313,3.0,9.0,40,0.00,,,0.00,Weather View 32 v70,2013-03-28 02:10:00,
2013-03-27 22:20:00,36.9,15.9,29.50,NW,318,0.0,9.0,42,0.00,,,0.00,Weather View 32 v70,2013-03-28 02:20:00,
2013-03-27 22:30:00,36.5,16.1,29.50,West,272,2.0,9.0,43,0.00,,,0.00,Weather View 32 v70,2013-03-28 02:30:00,
2013-03-27 22:40:00,36.0,16.1,29.50,SW,233,3.0,7.0,44,0.00,,,0.00,Weather View 32 v70,2013-03-28 02:40:00,
2013-03-27 22:50:00,35.6,15.8,29.50,NNW,343,4.0,6.0,44,0.00,,,0.00,Weather View 32 v70,2013-03-28 02:50:00,
2013-03-27 22:59:00,35.6,15.8,29.50,NNW,343,4.0,6.0,44,0.00,,,0.00,Weather View 32 v70,2013-03-28 02:59:00,
2013-03-27 23:10:00,34.7,15.5,29.53,WNW,290,4.0,6.0,45,0.00,,,0.00,Weather View 32 v70,2013-03-28 03:10:00,
2013-03-27 23:20:00,34.3,16.2,29.53,West,281,3.0,6.0,47,0.00,,,0.00,Weather View 32 v70,2013-03-28 03:20:00,
2013-03-27 23:30:00,34.0,15.8,29.53,NNW,332,4.0,8.0,47,0.00,,,0.00,Weather View 32 v70,2013-03-28 03:30:00,
2013-03-27 23:40:00,33.6,16.0,29.53,NE,56,4.0,8.0,48,0.00,,,0.00,Weather View 32 v70,2013-03-28 03:40:00,
2013-03-27 23:50:00,33.4,15.8,29.53,NNW,338,3.0,8.0,48,0.00,,,0.00,Weather View 32 v70,2013-03-28 03:50:00,